Location: Makanda
(37.6176°N, 89.2090°W)
Time: 16:45:50
(UTC+00:00)

Cosmos 923 Rocket - Pass Details

Date: 23 September 2019
Orbit: 759 x 785 km, 74.0° (Epoch: 20 October)

Event Time Altitude Azimuth Distance (km) Brightness Sun altitude
Exits shadow 10:18:08 18° 208° (SSW) 1,838 5.6 -17.9°
Maximum altitude 10:22:06 70° 289° (WNW) 836 4.0 -17.1°
Drops below altitude 10° 10:27:26 10° 13° (NNE) 2,344 6.8 -16.1°
Sets 10:29:50 0° 16° (NNE) 3,273 7.7 -15.7°
